Hourly Data Report for November 07, 2019

All times are specified in Local Standard Time (LST). Add 1 hour to adjust for Daylight Saving Time where and when it is observed.

QUALICUM BEACH AIRPORT
BRITISH COLUMBIA
Current Station Operator: ECCC - MSC

49°20'14.000" N
124°23'38.000" W
58.20 m
1026562
71766
VOQ

Download Data

Hourly Data (November 2019)
Hourly Data Report for November 7, 2019
TIME Temp Definition
°C
Dew Point Definition
°C
Rel Hum Definition
%
Wind Dir Definition
10's deg

Wind Spd Definition
km/h
Visibility Definition
km
Stn Press Definition
kPa
Hmdx Definition


Wind Chill Definition


Weather Definition


00:00 3.9 3.5 97   0   101.82     LegendNANA
01:00 3.8 3.3 97 26 2   101.83     LegendNANA
02:00 3.2 2.8 97 26 1   101.78     LegendNANA
03:00 2.5 2.2 97 0 1   101.77     LegendNANA
04:00 2.9 2.6 98 0 1   101.77     LegendNANA
05:00 1.9 1.6 98 0 1   101.75     LegendNANA
06:00 2.4 2.1 98 27 2   101.74     LegendNANA
07:00 2.7 2.5 98 0 1   101.73     LegendNANA
08:00 3.9 3.5 98 28 1   101.74     LegendNANA
09:00 6.0 5.5 97   0   101.76     LegendNANA
10:00 8.4 7.2 92 12 1   101.72     LegendNANA
11:00 9.2 6.7 84 9 4   101.73     LegendNANA
12:00 8.9 6.7 87 7 4   101.71     LegendNANA
13:00 9.5 6.8 84 6 3   101.67     LegendNANA
14:00 10.1 7.3 83 4 2   101.60     LegendNANA
15:00 10.2 6.7 79 3 3   101.57     LegendNANA
16:00 9.0 6.1 82 3 3   101.53     LegendNANA
17:00 7.3 5.9 91 22 2   101.53     LegendNANA
18:00 6.9 5.8 93 26 2   101.55     LegendNANA
19:00 6.0 5.1 94 0 1   101.54     LegendNANA
20:00 5.3 4.7 96 26 3   101.57     LegendNANA
21:00 5.0 4.5 96 25 1   101.55     LegendNANA
22:00 5.4 4.9 96 0 1   101.55     LegendNANA
23:00 4.4 3.8 96   0   101.52     LegendNANA

Notes on Data Quality.

Legend

  • E = Estimated
  • M = Missing
  • NA = Not Available
Date modified: